Regional Weather Roundup
Issued by NWS Memphis, TN

Home | Current Version | Previous Version | Text Only | Print | Product List | Glossary On
Versions: 1 2 3 4 5 6 7 8 9 10 11 12 13 14 15 16 17 18 19 20 21 22 23 24 25 26 27 28 29 30 31 32 33 34 35 36 37 38 39 40 41 42 43 44 45 46 47 48 49 50
000
ASUS44 KMEG 170410
RWRMEG
MEMPHIS CWA HOURLY WEATHER ROUNDUP
NATIONAL WEATHER SERVICE MEMPHIS TN
1100 PM CDT WED APR 16 2014

...WEST TENNESSEE...

CITY           SKY/WX    TMP DP  RH WIND       PRES   REMARKS
MEMPHIS INTL   PTCLDY    50  34  54 CALM      30.16R
NWS MEMPHIS      N/A     45 N/A N/A MISG        N/A
JACKSON        PTCLDY    45  32  60 S3        30.18R
LEXINGTON      CLEAR     43  36  75 CALM      30.18R
SAVANNAH       PTCLDY    40  37  89 CALM      30.19R
DYERSBURG      CLEAR     46  28  49 E5        30.18S
UNION CITY     CLEAR     43  34  70 E3        30.16S


...EASTERN ARKANSAS...

CITY           SKY/WX    TMP DP  RH WIND       PRES   REMARKS
JONESBORO      CLEAR     43  36  76 CALM      30.15R
WEST MEMPHIS   CLEAR     46  40  79 CALM      30.16R
BATESVILLE     CLEAR     46  34  61 SE3       30.14R
NEWPORT        CLEAR     48  38  68 S6        30.16R
WALNUT RIDGE   CLEAR     46  36  66 SE9       30.15R
BLYTHEVILLE    CLEAR     50  36  58 S5        30.16S
SEARCY         CLEAR     42  39  89 CALM      30.17R
STUTTGART      CLEAR     48  39  71 E6        30.16R
PINE BLUFF     CLEAR     47  39  74 SE6       30.15R
MONTICELLO     CLEAR     44  39  82 CALM      30.15R


...NORTH MISSISSIPPI...

CITY           SKY/WX    TMP DP  RH WIND       PRES   REMARKS
TUPELO         MOCLDY    47  39  74 CALM      30.18R
OXFORD         MOCLDY    48  32  53 CALM      30.19R
OLIVE BRANCH   CLEAR     48  32  53 CALM      30.17R
TUNICA         CLEAR     45  43  93 E3        30.18R
CLARKSDALE       N/A     48  45  87 CALM      30.17S
CORINTH        MOCLDY    45  37  76 CALM      30.19R
GRENADA        PTCLDY    43  41  93 CALM      30.18R
GREENWOOD      PTCLDY    46  42  86 NE5       30.16R
COLUMBUS       MOCLDY    47  41  77 SE6       30.19R
STARKVILLE     FAIR      45  41  87 CALM      30.18R
GOLDEN TRIANGL MOCLDY    52  36  54 SE7       30.21R


...SOUTHEAST MISSOURI...

CITY           SKY/WX    TMP DP  RH WIND       PRES   REMARKS
WEST PLAINS    CLEAR     44  29  55 CALM      30.14R
POPLAR BLUFF   CLEAR     47  34  60 SE5       30.13S
CAPE GIRARDEAU CLEAR     44  37  76 S3        30.15S


...NORTHWEST ALABAMA...

CITY           SKY/WX    TMP DP  RH WIND       PRES   REMARKS
MUSCLE SHOALS  PTCLDY    46  37  71 SE5       30.21R


...MIDDLE TENNESSEE...

CITY           SKY/WX    TMP DP  RH WIND       PRES   REMARKS
NASHVILLE      PTCLDY    47  35  63 S3        30.22R
CLARKSVILLE    PTCLDY    44  33  65 NE3       30.20R
DICKSON        PTCLDY    43  28  56 CALM      30.19R
COLUMBIA       CLEAR     43  37  81 CALM      30.19R
LEWISBURG      CLEAR     39  35  85 CALM      30.21R


...WESTERN KENTUCKY...

CITY           SKY/WX    TMP DP  RH WIND       PRES   REMARKS
PADUCAH        PTCLDY    47  33  58 SE7       30.16F
FORT CAMPBELL  PTCLDY    48  32  53 E5        30.20R


...CENTRAL ARKANSAS...

CITY           SKY/WX    TMP DP  RH WIND       PRES   REMARKS
LITTLE ROCK    PTCLDY    49  37  63 SE6       30.15R


SKY/WX REPORTED AS FAIR MEANS FEW OR NO CLOUDS BELOW
12 THOUSAND FEET.




USA.gov is the U.S. government's official web portal to all federal, state and local government web resources and services.